LNR46AQ LEMH-LFML

Flight info

Callsign LNR46AQ
Flight time 0h 39m
Altitude 28000
Route MEROS DCT LAPIT DCT CHELY DCT LUMAS/N0444F300 UM976 SOSUR
Aircraft A318/M-SDE3FGHIRWY/LB1

Departure

Time 2026-05-06 07:48
Airport Menorca Airport (LEMH)

Arrival

Time 2026-05-06 08:28
Airport Marseille Provence Airport (LFML)
Time Latitude Longitude Altitude Speed Heading
2026-05-06 07:26 39.86424 4.22396 286 ft 0 kts 99°
2026-05-06 07:33 39.86425 4.22390 291 ft 2 kts 99°
2026-05-06 07:33 39.86428 4.22365 294 ft 3 kts 99°
2026-05-06 07:33 39.86431 4.22343 291 ft 3 kts 108°
2026-05-06 07:33 39.86442 4.22323 293 ft 3 kts 149°
2026-05-06 07:34 39.86460 4.22316 291 ft 3 kts 182°
2026-05-06 07:34 39.86472 4.22318 288 ft 1 kts 189°
2026-05-06 07:34 39.86474 4.22318 288 ft 0 kts 189°
2026-05-06 07:39 39.86471 4.22317 288 ft 4 kts 189°
2026-05-06 07:40 39.86433 4.22309 288 ft 6 kts 189°
2026-05-06 07:40 39.86388 4.22300 288 ft 7 kts 189°
2026-05-06 07:40 39.86337 4.22289 288 ft 8 kts 190°
2026-05-06 07:40 39.86282 4.22276 290 ft 8 kts 190°
2026-05-06 07:41 39.86229 4.22266 288 ft 8 kts 190°
2026-05-06 07:41 39.86188 4.22233 292 ft 6 kts 244°
2026-05-06 07:41 39.86188 4.22184 290 ft 6 kts 277°
2026-05-06 07:41 39.86191 4.22117 293 ft 8 kts 256°
2026-05-06 07:42 39.86144 4.22080 298 ft 10 kts 187°
2026-05-06 07:42 39.86058 4.22062 295 ft 15 kts 189°
2026-05-06 07:42 39.85947 4.22040 296 ft 16 kts 189°
2026-05-06 07:42 39.85850 4.22020 295 ft 14 kts 190°
2026-05-06 07:43 39.85756 4.21999 295 ft 14 kts 189°
2026-05-06 07:43 39.85667 4.21981 290 ft 12 kts 189°
2026-05-06 07:43 39.85591 4.21966 287 ft 10 kts 188°
2026-05-06 07:43 39.85525 4.21954 285 ft 9 kts 188°
2026-05-06 07:44 39.85467 4.21942 284 ft 9 kts 190°
2026-05-06 07:44 39.85398 4.21926 283 ft 11 kts 189°
2026-05-06 07:44 39.85319 4.21909 281 ft 12 kts 188°
2026-05-06 07:44 39.85243 4.21895 281 ft 10 kts 188°
2026-05-06 07:45 39.85184 4.21883 281 ft 7 kts 188°
2026-05-06 07:45 39.85144 4.21864 283 ft 5 kts 218°
2026-05-06 07:45 39.85130 4.21832 282 ft 5 kts 258°
2026-05-06 07:45 39.85131 4.21786 283 ft 3 kts 275°
2026-05-06 07:46 39.85131 4.21785 283 ft 0 kts 275°
2026-05-06 07:46 39.85135 4.21732 284 ft 9 kts 278°
2026-05-06 07:47 39.85146 4.21680 290 ft 6 kts 298°
2026-05-06 07:47 39.85181 4.21650 286 ft 5 kts 352°
2026-05-06 07:47 39.85208 4.21650 286 ft 0 kts
2026-05-06 07:48 39.85272 4.21662 285 ft 29 kts
2026-05-06 07:48 39.85711 4.21752 295 ft 102 kts
2026-05-06 07:48 39.86646 4.21944 455 ft 159 kts
2026-05-06 07:48 39.87785 4.22198 1316 ft 170 kts 11°
2026-05-06 07:49 39.88975 4.22493 2255 ft 176 kts 11°
2026-05-06 07:49 39.90164 4.22802 3169 ft 182 kts 10°
2026-05-06 07:49 39.91487 4.23098 3774 ft 207 kts
2026-05-06 07:49 39.92972 4.23387 4439 ft 217 kts
2026-05-06 07:50 39.94477 4.23671 5092 ft 220 kts
2026-05-06 07:50 39.96009 4.23961 5756 ft 223 kts
2026-05-06 07:50 39.97541 4.24264 6424 ft 224 kts
2026-05-06 07:50 39.98574 4.24470 6850 ft 227 kts
2026-05-06 07:51 40.00660 4.24910 7694 ft 232 kts
2026-05-06 07:51 40.02258 4.25271 8332 ft 233 kts
2026-05-06 07:51 40.03345 4.25523 8767 ft 236 kts
2026-05-06 07:51 40.04965 4.25903 9415 ft 246 kts
2026-05-06 07:52 40.06733 4.26314 9928 ft 268 kts
2026-05-06 07:52 40.08570 4.26748 10386 ft 267 kts
2026-05-06 07:52 40.10417 4.27194 10859 ft 271 kts
2026-05-06 07:52 40.12290 4.27646 11337 ft 275 kts
2026-05-06 07:53 40.14167 4.28099 11818 ft 275 kts
2026-05-06 07:53 40.16063 4.28556 12309 ft 278 kts
2026-05-06 07:53 40.17987 4.29017 12806 ft 282 kts
2026-05-06 07:53 40.19931 4.29483 13312 ft 284 kts
2026-05-06 07:54 40.21860 4.29944 13813 ft 289 kts
2026-05-06 07:54 40.23906 4.30423 14270 ft 307 kts
2026-05-06 07:54 40.26069 4.30919 14735 ft 325 kts
2026-05-06 07:54 40.28353 4.31445 15198 ft 341 kts
2026-05-06 07:55 40.31550 4.32188 15826 ft 362 kts
2026-05-06 07:55 40.33246 4.32588 16151 ft 372 kts
2026-05-06 07:55 40.35819 4.33202 16635 ft 379 kts
2026-05-06 07:55 40.38390 4.33825 17122 ft 380 kts
2026-05-06 07:56 40.40999 4.34463 17624 ft 383 kts
2026-05-06 07:56 40.43610 4.35100 18132 ft 388 kts
2026-05-06 07:56 40.46278 4.35750 18595 ft 392 kts
2026-05-06 07:56 40.48981 4.36403 19041 ft 394 kts
2026-05-06 07:57 40.51692 4.37052 19500 ft 397 kts
2026-05-06 07:57 40.54421 4.37704 19967 ft 400 kts
2026-05-06 07:57 40.57169 4.38358 20442 ft 404 kts
2026-05-06 07:57 40.59922 4.39014 20907 ft 408 kts
2026-05-06 07:58 40.62732 4.39684 21396 ft 411 kts
2026-05-06 07:58 40.65555 4.40358 21888 ft 414 kts
2026-05-06 07:58 40.68408 4.41041 22393 ft 417 kts
2026-05-06 07:58 40.71269 4.41726 22909 ft 421 kts
2026-05-06 07:59 40.74181 4.42425 23429 ft 425 kts
2026-05-06 07:59 40.77075 4.43120 23887 ft 429 kts
2026-05-06 07:59 40.80034 4.43833 24328 ft 433 kts
2026-05-06 07:59 40.82997 4.44549 24769 ft 436 kts
2026-05-06 08:00 40.86000 4.45275 25235 ft 440 kts
2026-05-06 08:00 40.89024 4.46007 25708 ft 444 kts
2026-05-06 08:00 40.92036 4.46738 26165 ft 447 kts
2026-05-06 08:00 40.95104 4.47485 26644 ft 449 kts
2026-05-06 08:01 40.98207 4.48247 27138 ft 451 kts
2026-05-06 08:01 41.01314 4.49012 27593 ft 455 kts
2026-05-06 08:01 41.04408 4.49775 27814 ft 464 kts
2026-05-06 08:01 41.07621 4.50563 27905 ft 475 kts
2026-05-06 08:02 41.10908 4.51364 27937 ft 479 kts
2026-05-06 08:02 41.14151 4.52160 27947 ft 471 kts
2026-05-06 08:02 41.17360 4.52955 27949 ft 467 kts
2026-05-06 08:02 41.20558 4.53751 27955 ft 467 kts
2026-05-06 08:03 41.23745 4.54546 27954 ft 469 kts
2026-05-06 08:03 41.26966 4.55351 27956 ft 469 kts
2026-05-06 08:03 41.30132 4.56146 27959 ft 468 kts
2026-05-06 08:03 41.33332 4.56953 27964 ft 468 kts
2026-05-06 08:04 41.36547 4.57766 27967 ft 469 kts
2026-05-06 08:04 41.39731 4.58574 27964 ft 470 kts
2026-05-06 08:04 41.42947 4.59393 27965 ft 470 kts
2026-05-06 08:04 41.46165 4.60216 27963 ft 469 kts
2026-05-06 08:05 41.49370 4.61038 27963 ft 469 kts
2026-05-06 08:05 41.52578 4.61866 27959 ft 469 kts
2026-05-06 08:05 41.55755 4.62688 27960 ft 470 kts
2026-05-06 08:05 41.59009 4.63533 27961 ft 471 kts
2026-05-06 08:06 41.62058 4.64328 27961 ft 470 kts
2026-05-06 08:06 41.65048 4.65109 27959 ft 470 kts
2026-05-06 08:06 41.68188 4.65934 27961 ft 470 kts
2026-05-06 08:06 41.70948 4.66661 27961 ft 471 kts
2026-05-06 08:07 41.74043 4.67477 27963 ft 471 kts
2026-05-06 08:07 41.77253 4.68326 27967 ft 471 kts
2026-05-06 08:07 41.80465 4.69179 27957 ft 470 kts
2026-05-06 08:07 41.81136 4.69358 27957 ft 470 kts
2026-05-06 08:08 41.83878 4.70088 27954 ft 470 kts
2026-05-06 08:08 41.87062 4.70937 27955 ft 470 kts
2026-05-06 08:08 41.90273 4.71795 27952 ft 471 kts
2026-05-06 08:08 41.93301 4.72604 27949 ft 471 kts
2026-05-06 08:09 41.96545 4.73469 27949 ft 480 kts
2026-05-06 08:09 41.99671 4.74301 27972 ft 471 kts
2026-05-06 08:09 42.02875 4.75162 27472 ft 471 kts
2026-05-06 08:09 42.06065 4.76023 26954 ft 462 kts
2026-05-06 08:10 42.09196 4.76879 26449 ft 455 kts
2026-05-06 08:10 42.12284 4.77730 25947 ft 452 kts
2026-05-06 08:10 42.15352 4.78582 25465 ft 449 kts
2026-05-06 08:10 42.17899 4.79294 25075 ft 446 kts
2026-05-06 08:11 42.20912 4.80143 24582 ft 442 kts
2026-05-06 08:11 42.23913 4.80999 24118 ft 439 kts
2026-05-06 08:11 42.26807 4.82371 23649 ft 446 kts 22°
2026-05-06 08:11 42.29488 4.84386 23149 ft 446 kts 26°
2026-05-06 08:12 42.32199 4.86527 22585 ft 440 kts 26°
2026-05-06 08:12 42.34616 4.88367 22097 ft 433 kts 24°
2026-05-06 08:12 42.37265 4.90241 21573 ft 427 kts 22°
2026-05-06 08:12 42.39937 4.91965 21060 ft 421 kts 19°
2026-05-06 08:13 42.42606 4.93532 20563 ft 415 kts 17°
2026-05-06 08:13 42.45280 4.94970 20054 ft 408 kts 15°
2026-05-06 08:13 42.47279 4.95971 19683 ft 403 kts 14°
2026-05-06 08:13 42.49902 4.97204 19202 ft 398 kts 13°
2026-05-06 08:14 42.52510 4.98326 18727 ft 392 kts
2026-05-06 08:14 42.55147 4.99088 18257 ft 383 kts
2026-05-06 08:14 42.57752 4.99624 17727 ft 377 kts
2026-05-06 08:14 42.60342 5.00050 17182 ft 372 kts
2026-05-06 08:15 42.62917 5.00409 16652 ft 369 kts
2026-05-06 08:15 42.65454 5.00724 16121 ft 365 kts
2026-05-06 08:15 42.67974 5.01014 15622 ft 361 kts
2026-05-06 08:15 42.70459 5.01287 15122 ft 357 kts
2026-05-06 08:16 42.72928 5.01550 14627 ft 355 kts
2026-05-06 08:16 42.75381 5.01809 14139 ft 352 kts
2026-05-06 08:16 42.77766 5.02299 13658 ft 352 kts 13°
2026-05-06 08:16 42.80058 5.03436 13125 ft 350 kts 20°
2026-05-06 08:17 42.82293 5.04726 12583 ft 345 kts 20°
2026-05-06 08:17 42.84446 5.05989 12081 ft 334 kts 20°
2026-05-06 08:17 42.86547 5.07232 11576 ft 325 kts 20°
2026-05-06 08:17 42.88600 5.08454 11071 ft 317 kts 20°
2026-05-06 08:18 42.90600 5.09648 10611 ft 310 kts 21°
2026-05-06 08:18 42.92540 5.10875 10146 ft 304 kts 22°
2026-05-06 08:18 42.94412 5.12123 9677 ft 298 kts 23°
2026-05-06 08:18 42.96247 5.13388 9173 ft 293 kts 24°
2026-05-06 08:19 42.98052 5.14662 8658 ft 289 kts 24°
2026-05-06 08:19 42.99475 5.15681 8273 ft 288 kts 24°
2026-05-06 08:19 43.01244 5.16959 7796 ft 288 kts 25°
2026-05-06 08:19 43.02894 5.18164 7343 ft 287 kts 25°
2026-05-06 08:20 43.04627 5.19436 6872 ft 285 kts 25°
2026-05-06 08:20 43.06361 5.20718 6415 ft 282 kts 25°
2026-05-06 08:20 43.08083 5.21994 5929 ft 279 kts 25°
2026-05-06 08:20 43.09782 5.23249 5434 ft 277 kts 25°
2026-05-06 08:21 43.11474 5.24499 4955 ft 274 kts 25°
2026-05-06 08:21 43.13133 5.25723 4474 ft 269 kts 25°
2026-05-06 08:21 43.14691 5.26882 4209 ft 258 kts 25°
2026-05-06 08:21 43.15705 5.27635 4120 ft 251 kts 25°
2026-05-06 08:22 43.16860 5.28492 4061 ft 249 kts 25°
2026-05-06 08:22 43.18390 5.29625 4032 ft 250 kts 25°
2026-05-06 08:22 43.19924 5.30760 4012 ft 249 kts 25°
2026-05-06 08:22 43.21512 5.31762 3599 ft 251 kts 14°
2026-05-06 08:23 43.23186 5.32322 3261 ft 242 kts
2026-05-06 08:23 43.24803 5.32634 3115 ft 228 kts
2026-05-06 08:23 43.26377 5.32801 3053 ft 225 kts 360°
2026-05-06 08:23 43.27961 5.32870 2736 ft 229 kts 358°
2026-05-06 08:24 43.29516 5.32877 2596 ft 219 kts 357°
2026-05-06 08:24 43.30969 5.32846 2550 ft 203 kts 356°
2026-05-06 08:24 43.32338 5.32806 2526 ft 195 kts 355°
2026-05-06 08:24 43.33629 5.32756 2520 ft 195 kts 355°
2026-05-06 08:25 43.34956 5.32579 2535 ft 183 kts 341°
2026-05-06 08:25 43.35907 5.32046 2589 ft 156 kts 325°
2026-05-06 08:25 43.36680 5.31136 2589 ft 141 kts 316°
2026-05-06 08:25 43.37418 5.30269 2360 ft 139 kts 316°
2026-05-06 08:26 43.38124 5.29390 2173 ft 135 kts 313°
2026-05-06 08:26 43.38773 5.28511 1895 ft 131 kts 312°
2026-05-06 08:26 43.39420 5.27624 1366 ft 135 kts 311°
2026-05-06 08:26 43.39996 5.26739 1118 ft 123 kts 312°
2026-05-06 08:27 43.40561 5.25919 834 ft 116 kts 314°
2026-05-06 08:27 43.41103 5.25136 638 ft 112 kts 314°
2026-05-06 08:27 43.41629 5.24359 472 ft 110 kts 315°
2026-05-06 08:27 43.42182 5.23608 333 ft 114 kts 315°
2026-05-06 08:28 43.42746 5.22825 165 ft 116 kts 314°
2026-05-06 08:28 43.43284 5.22055 39 ft 107 kts 314°
2026-05-06 08:28 43.43670 5.21508 36 ft 46 kts 314°
2026-05-06 08:28 43.43866 5.21232 37 ft 30 kts 315°
2026-05-06 08:29 43.43988 5.21129 34 ft 14 kts 341°
2026-05-06 08:29 43.44061 5.21098 34 ft 4 kts 343°
2026-05-06 08:29 43.44073 5.21093 36 ft 2 kts 343°
2026-05-06 08:29 43.44087 5.21087 36 ft 4 kts 346°
2026-05-06 08:30 43.44128 5.21084 35 ft 7 kts
2026-05-06 08:30 43.44149 5.21123 37 ft 6 kts 82°
2026-05-06 08:30 43.44133 5.21184 36 ft 8 kts 129°
2026-05-06 08:30 43.44090 5.21247 37 ft 10 kts 134°
2026-05-06 08:31 43.44042 5.21316 37 ft 10 kts 133°
2026-05-06 08:31 43.43996 5.21381 37 ft 9 kts 134°
2026-05-06 08:31 43.43956 5.21437 37 ft 7 kts 134°
2026-05-06 08:31 43.43929 5.21481 37 ft 4 kts 115°
2026-05-06 08:32 43.43921 5.21525 37 ft 6 kts 89°
2026-05-06 08:32 43.43942 5.21585 37 ft 8 kts 47°
2026-05-06 08:32 43.43981 5.21638 37 ft 9 kts 44°
2026-05-06 08:32 43.44024 5.21695 37 ft 7 kts 43°
2026-05-06 08:33 43.44053 5.21732 37 ft 5 kts 43°
2026-05-06 08:33 43.44075 5.21761 37 ft 4 kts 43°
2026-05-06 08:33 43.44101 5.21792 37 ft 6 kts 38°
2026-05-06 08:33 43.44137 5.21816 37 ft 5 kts 19°
2026-05-06 08:34 43.44158 5.21824 36 ft 2 kts
2026-05-06 08:34 43.44184 5.21809 37 ft 2 kts 327°
2026-05-06 08:34 43.44194 5.21798 37 ft 2 kts 316°
2026-05-06 08:35 43.44200 5.21789 37 ft 1 kts 310°
2026-05-06 08:35 43.44207 5.21777 37 ft 0 kts 310°
2026-05-06 08:38 43.44214 5.21822 37 ft 0 kts 88°